Time,TemperatureF,DewpointF,PressureIn,WindDirection,WindDirectionDegrees,WindSpeedMPH,WindSpeedGustMPH,Humidity,HourlyPrecipIn,Conditions,Clouds,dailyrainin,SoftwareType,DateUTC
2013-02-04 00:11:00,16.2,11.0,29.88,West,268,6.0,-999.0,81,-99.99,,,0.00,weatherlink.com 1.10,2013-02-04 05:11:00,
2013-02-04 00:26:00,16.2,11.0,29.88,SW,234,0.0,-999.0,81,-99.99,,,0.00,weatherlink.com 1.10,2013-02-04 05:26:00,
2013-02-04 00:41:00,16.3,11.0,29.88,WSW,246,1.0,-999.0,81,-99.99,,,0.00,weatherlink.com 1.10,2013-02-04 05:41:00,
2013-02-04 00:56:00,16.4,12.0,29.89,SW,223,2.0,-999.0,81,-99.99,,,0.00,weatherlink.com 1.10,2013-02-04 05:56:00,
2013-02-04 01:11:00,16.4,12.0,29.89,West,269,1.0,-999.0,81,-99.99,,,0.00,weatherlink.com 1.10,2013-02-04 06:11:00,
2013-02-04 01:26:00,16.6,12.0,29.89,WSW,248,4.0,-999.0,81,-99.99,,,0.00,weatherlink.com 1.10,2013-02-04 06:26:00,
2013-02-04 01:41:00,16.6,12.0,29.89,West,271,2.0,-999.0,82,-99.99,,,0.00,weatherlink.com 1.10,2013-02-04 06:41:00,
2013-02-04 01:56:00,16.8,12.0,29.89,WSW,253,1.0,-999.0,81,-99.99,,,0.00,weatherlink.com 1.10,2013-02-04 06:56:00,
2013-02-04 02:11:00,16.8,12.0,29.89,SW,230,2.0,-999.0,81,-99.99,,,0.00,weatherlink.com 1.10,2013-02-04 07:11:00,
2013-02-04 02:26:00,16.5,11.0,29.90,SW,225,7.0,-999.0,80,-99.99,,,0.00,weatherlink.com 1.10,2013-02-04 07:26:00,
2013-02-04 02:41:00,16.3,11.0,29.90,WSW,238,5.0,-999.0,80,-99.99,,,0.00,weatherlink.com 1.10,2013-02-04 07:41:00,
2013-02-04 02:56:00,16.2,11.0,29.90,SW,236,4.0,-999.0,80,-99.99,,,0.00,weatherlink.com 1.10,2013-02-04 07:56:00,
2013-02-04 03:11:00,16.4,11.0,29.90,SW,228,10.0,-999.0,80,-99.99,,,0.00,weatherlink.com 1.10,2013-02-04 08:11:00,
2013-02-04 03:26:00,16.4,11.0,29.90,SW,230,2.0,-999.0,80,-99.99,,,0.00,weatherlink.com 1.10,2013-02-04 08:26:00,
2013-02-04 03:41:00,16.4,11.0,29.91,WNW,296,5.0,-999.0,80,-99.99,,,0.00,weatherlink.com 1.10,2013-02-04 08:41:00,
2013-02-04 03:56:00,16.3,11.0,29.91,WSW,238,5.0,-999.0,79,-99.99,,,0.00,weatherlink.com 1.10,2013-02-04 08:56:00,
2013-02-04 04:11:00,16.0,11.0,29.91,WSW,245,1.0,-999.0,79,-99.99,,,0.00,weatherlink.com 1.10,2013-02-04 09:11:00,
2013-02-04 04:26:00,15.7,10.0,29.92,West,259,4.0,-999.0,78,-99.99,,,0.00,weatherlink.com 1.10,2013-02-04 09:26:00,
2013-02-04 04:41:00,15.4,10.0,29.93,SW,236,6.0,-999.0,78,-99.99,,,0.00,weatherlink.com 1.10,2013-02-04 09:41:00,
2013-02-04 04:56:00,15.2,10.0,29.93,SW,223,3.0,-999.0,79,-99.99,,,0.00,weatherlink.com 1.10,2013-02-04 09:56:00,
2013-02-04 05:11:00,15.1,10.0,29.93,SW,222,5.0,-999.0,79,-99.99,,,0.00,weatherlink.com 1.10,2013-02-04 10:11:00,
2013-02-04 05:26:00,15.0,10.0,29.93,WSW,238,3.0,-999.0,79,-99.99,,,0.00,weatherlink.com 1.10,2013-02-04 10:26:00,
2013-02-04 05:41:00,14.8,9.0,29.93,WNW,302,5.0,-999.0,79,-99.99,,,0.00,weatherlink.com 1.10,2013-02-04 10:41:00,
2013-02-04 05:56:00,14.8,9.0,29.94,WSW,246,4.0,-999.0,79,-99.99,,,0.00,weatherlink.com 1.10,2013-02-04 10:56:00,
2013-02-04 06:11:00,14.7,9.0,29.95,WNW,283,11.0,-999.0,78,-99.99,,,0.00,weatherlink.com 1.10,2013-02-04 11:11:00,
2013-02-04 06:26:00,14.6,9.0,29.95,WSW,241,5.0,-999.0,78,-99.99,,,0.00,weatherlink.com 1.10,2013-02-04 11:26:00,
2013-02-04 06:41:00,14.8,9.0,29.95,WSW,243,6.0,-999.0,78,-99.99,,,0.00,weatherlink.com 1.10,2013-02-04 11:41:00,
2013-02-04 06:56:00,15.0,9.0,29.96,WSW,244,3.0,-999.0,78,-99.99,,,0.00,weatherlink.com 1.10,2013-02-04 11:56:00,
2013-02-04 07:11:00,15.2,10.0,29.96,WNW,302,5.0,-999.0,78,-99.99,,,0.00,weatherlink.com 1.10,2013-02-04 12:11:00,
2013-02-04 07:26:00,15.3,9.0,29.96,WSW,249,7.0,-999.0,77,-99.99,,,0.00,weatherlink.com 1.10,2013-02-04 12:26:00,
2013-02-04 07:41:00,15.3,9.0,29.97,WSW,251,4.0,-999.0,77,-99.99,,,0.00,weatherlink.com 1.10,2013-02-04 12:41:00,
2013-02-04 07:56:00,15.2,9.0,29.97,WSW,239,2.0,-999.0,76,-99.99,,,0.00,weatherlink.com 1.10,2013-02-04 12:56:00,
2013-02-04 08:11:00,15.1,9.0,29.97,WNW,290,4.0,-999.0,75,-99.99,,,0.00,weatherlink.com 1.10,2013-02-04 13:11:00,
2013-02-04 08:26:00,15.2,9.0,29.98,SW,223,3.0,-999.0,75,-99.99,,,0.00,weatherlink.com 1.10,2013-02-04 13:26:00,
2013-02-04 08:41:00,15.2,9.0,29.98,West,276,5.0,-999.0,75,-99.99,,,0.00,weatherlink.com 1.10,2013-02-04 13:41:00,
2013-02-04 08:56:00,15.3,9.0,29.98,SW,225,7.0,-999.0,75,-99.99,,,0.00,weatherlink.com 1.10,2013-02-04 13:56:00,
2013-02-04 09:11:00,15.9,9.0,29.98,WSW,245,3.0,-999.0,74,-99.99,,,0.00,weatherlink.com 1.10,2013-02-04 14:11:00,
2013-02-04 09:26:00,16.6,9.0,29.98,WSW,238,0.0,-999.0,72,-99.99,,,0.00,weatherlink.com 1.10,2013-02-04 14:26:00,
2013-02-04 09:41:00,17.2,10.0,29.98,WSW,238,2.0,-999.0,72,-99.99,,,0.00,weatherlink.com 1.10,2013-02-04 14:41:00,
2013-02-04 09:56:00,18.1,10.0,29.97,WSW,240,8.0,-999.0,71,-99.99,,,0.00,weatherlink.com 1.10,2013-02-04 14:56:00,
2013-02-04 10:11:00,18.9,11.0,29.97,WSW,240,6.0,-999.0,70,-99.99,,,0.00,weatherlink.com 1.10,2013-02-04 15:11:00,
2013-02-04 10:26:00,19.3,10.0,29.97,WSW,245,0.0,-999.0,68,-99.99,,,0.00,weatherlink.com 1.10,2013-02-04 15:26:00,
2013-02-04 10:41:00,19.4,10.0,29.97,West,272,5.0,-999.0,67,-99.99,,,0.00,weatherlink.com 1.10,2013-02-04 15:41:00,
2013-02-04 10:56:00,19.9,10.0,29.97,SW,234,5.0,-999.0,66,-99.99,,,0.00,weatherlink.com 1.10,2013-02-04 15:56:00,
2013-02-04 11:11:00,19.8,9.0,29.97,SW,233,4.0,-999.0,64,-99.99,,,0.00,weatherlink.com 1.10,2013-02-04 16:11:00,
2013-02-04 11:26:00,20.0,10.0,29.97,West,275,1.0,-999.0,65,-99.99,,,0.00,weatherlink.com 1.10,2013-02-04 16:26:00,
2013-02-04 11:41:00,20.6,10.0,29.97,NW,314,3.0,-999.0,65,-99.99,,,0.00,weatherlink.com 1.10,2013-02-04 16:41:00,
2013-02-04 11:56:00,21.3,11.0,29.96,WSW,254,4.0,-999.0,64,-99.99,,,0.00,weatherlink.com 1.10,2013-02-04 16:56:00,
2013-02-04 12:11:00,21.2,11.0,29.96,NW,315,2.0,-999.0,64,-99.99,,,0.00,weatherlink.com 1.10,2013-02-04 17:11:00,
2013-02-04 12:26:00,21.7,11.0,29.96,SW,227,0.0,-999.0,63,-99.99,,,0.00,weatherlink.com 1.10,2013-02-04 17:26:00,
2013-02-04 12:41:00,21.4,10.0,29.95,SW,225,4.0,-999.0,62,-99.99,,,0.00,weatherlink.com 1.10,2013-02-04 17:41:00,
2013-02-04 12:56:00,20.2,9.0,29.95,WSW,254,3.0,-999.0,63,-99.99,,,0.00,weatherlink.com 1.10,2013-02-04 17:56:00,
2013-02-04 13:11:00,20.4,10.0,29.95,West,265,7.0,-999.0,64,-99.99,,,0.00,weatherlink.com 1.10,2013-02-04 18:11:00,
2013-02-04 13:26:00,20.3,10.0,29.95,West,279,6.0,-999.0,65,-99.99,,,0.00,weatherlink.com 1.10,2013-02-04 18:26:00,
2013-02-04 13:41:00,20.2,10.0,29.94,WSW,240,0.0,-999.0,65,-99.99,,,0.00,weatherlink.com 1.10,2013-02-04 18:41:00,
2013-02-04 13:56:00,20.1,10.0,29.95,SW,236,4.0,-999.0,65,-99.99,,,0.00,weatherlink.com 1.10,2013-02-04 18:56:00,
2013-02-04 14:11:00,20.3,11.0,29.95,WSW,244,1.0,-999.0,66,-99.99,,,0.00,weatherlink.com 1.10,2013-02-04 19:11:00,
2013-02-04 14:26:00,20.4,12.0,29.95,West,270,2.0,-999.0,69,-99.99,,,0.00,weatherlink.com 1.10,2013-02-04 19:26:00,
2013-02-04 14:41:00,20.4,12.0,29.95,SW,236,2.0,-999.0,69,-99.99,,,0.00,weatherlink.com 1.10,2013-02-04 19:41:00,
2013-02-04 14:56:00,19.9,12.0,29.95,SW,232,2.0,-999.0,70,-99.99,,,0.00,weatherlink.com 1.10,2013-02-04 19:56:00,
2013-02-04 15:11:00,19.4,12.0,29.95,WSW,257,5.0,-999.0,73,-99.99,,,0.00,weatherlink.com 1.10,2013-02-04 20:11:00,
2013-02-04 15:26:00,18.7,12.0,29.96,WSW,242,3.0,-999.0,74,-99.99,,,0.00,weatherlink.com 1.10,2013-02-04 20:26:00,
2013-02-04 15:41:00,18.6,12.0,29.95,SW,230,1.0,-999.0,76,-99.99,,,0.00,weatherlink.com 1.10,2013-02-04 20:41:00,
2013-02-04 15:56:00,18.6,13.0,29.96,SSW,211,2.0,-999.0,77,-99.99,,,0.00,weatherlink.com 1.10,2013-02-04 20:56:00,
2013-02-04 16:11:00,18.6,13.0,29.95,WSW,240,2.0,-999.0,77,-99.99,,,0.00,weatherlink.com 1.10,2013-02-04 21:11:00,
2013-02-04 16:26:00,18.4,13.0,29.95,WSW,239,2.0,-999.0,78,-99.99,,,0.00,weatherlink.com 1.10,2013-02-04 21:26:00,
2013-02-04 16:41:00,18.3,13.0,29.95,West,259,1.0,-999.0,79,-99.99,,,0.00,weatherlink.com 1.10,2013-02-04 21:41:00,
2013-02-04 16:56:00,18.3,13.0,29.95,West,259,1.0,-999.0,79,-99.99,,,0.00,weatherlink.com 1.10,2013-02-04 21:56:00,
2013-02-04 17:11:00,18.2,12.0,29.94,West,260,0.0,-999.0,78,-99.99,,,0.00,weatherlink.com 1.10,2013-02-04 22:11:00,
2013-02-04 17:26:00,18.0,13.0,29.94,WSW,247,0.0,-999.0,79,-99.99,,,0.00,weatherlink.com 1.10,2013-02-04 22:26:00,
2013-02-04 17:41:00,18.0,13.0,29.94,WSW,248,0.0,-999.0,79,-99.99,,,0.00,weatherlink.com 1.10,2013-02-04 22:41:00,
2013-02-04 17:56:00,17.8,12.0,29.94,WSW,248,0.0,-999.0,79,-99.99,,,0.00,weatherlink.com 1.10,2013-02-04 22:56:00,
2013-02-04 18:11:00,17.7,13.0,29.94,WSW,244,2.0,-999.0,80,-99.99,,,0.00,weatherlink.com 1.10,2013-02-04 23:11:00,
2013-02-04 18:26:00,17.7,13.0,29.94,West,261,0.0,-999.0,81,-99.99,,,0.00,weatherlink.com 1.10,2013-02-04 23:26:00,
2013-02-04 18:41:00,17.7,13.0,29.95,WSW,256,0.0,-999.0,81,-99.99,,,0.00,weatherlink.com 1.10,2013-02-04 23:41:00,
2013-02-04 18:56:00,17.7,13.0,29.94,WSW,256,2.0,-999.0,81,-99.99,,,0.00,weatherlink.com 1.10,2013-02-04 23:56:00,
2013-02-04 19:11:00,17.7,13.0,29.95,WSW,256,0.0,-999.0,82,-99.99,,,0.00,weatherlink.com 1.10,2013-02-05 00:11:00,
2013-02-04 19:26:00,17.8,13.0,29.95,WSW,256,0.0,-999.0,82,-99.99,,,0.00,weatherlink.com 1.10,2013-02-05 00:26:00,
2013-02-04 19:41:00,17.8,14.0,29.95,WSW,256,0.0,-999.0,83,-99.99,,,0.00,weatherlink.com 1.10,2013-02-05 00:41:00,
2013-02-04 19:56:00,17.8,14.0,29.95,WSW,256,0.0,-999.0,83,-99.99,,,0.00,weatherlink.com 1.10,2013-02-05 00:56:00,
2013-02-04 20:11:00,17.8,14.0,29.95,WSW,256,0.0,-999.0,83,-99.99,,,0.00,weatherlink.com 1.10,2013-02-05 01:11:00,
2013-02-04 20:26:00,17.9,14.0,29.95,WSW,256,0.0,-999.0,83,-99.99,,,0.00,weatherlink.com 1.10,2013-02-05 01:26:00,
2013-02-04 20:41:00,17.9,14.0,29.95,WSW,256,1.0,-999.0,84,-99.99,,,0.00,weatherlink.com 1.10,2013-02-05 01:41:00,
2013-02-04 20:56:00,17.8,14.0,29.95,WSW,256,0.0,-999.0,84,-99.99,,,0.00,weatherlink.com 1.10,2013-02-05 01:56:00,
2013-02-04 21:11:00,17.8,14.0,29.95,WSW,255,1.0,-999.0,84,-99.99,,,0.00,weatherlink.com 1.10,2013-02-05 02:11:00,
2013-02-04 21:26:00,17.8,14.0,29.95,WSW,250,1.0,-999.0,84,-99.99,,,0.00,weatherlink.com 1.10,2013-02-05 02:26:00,
2013-02-04 21:41:00,17.8,14.0,29.95,WSW,249,1.0,-999.0,84,-99.99,,,0.00,weatherlink.com 1.10,2013-02-05 02:41:00,
2013-02-04 21:56:00,17.9,14.0,29.94,WSW,250,0.0,-999.0,84,-99.99,,,0.00,weatherlink.com 1.10,2013-02-05 02:56:00,
2013-02-04 22:11:00,17.9,14.0,29.95,WSW,253,0.0,-999.0,83,-99.99,,,0.00,weatherlink.com 1.10,2013-02-05 03:11:00,
2013-02-04 22:26:00,17.9,14.0,29.94,WSW,251,0.0,-999.0,83,-99.99,,,0.00,weatherlink.com 1.10,2013-02-05 03:26:00,
2013-02-04 22:41:00,17.9,14.0,29.95,WSW,250,0.0,-999.0,83,-99.99,,,0.00,weatherlink.com 1.10,2013-02-05 03:41:00,
2013-02-04 22:56:00,18.0,14.0,29.95,WSW,250,1.0,-999.0,83,-99.99,,,0.00,weatherlink.com 1.10,2013-02-05 03:56:00,
2013-02-04 23:11:00,18.1,14.0,29.95,WSW,251,0.0,-999.0,83,-99.99,,,0.00,weatherlink.com 1.10,2013-02-05 04:11:00,
2013-02-04 23:26:00,18.1,14.0,29.95,WSW,251,0.0,-999.0,82,-99.99,,,0.00,weatherlink.com 1.10,2013-02-05 04:26:00,
2013-02-04 23:41:00,18.1,14.0,29.95,WSW,251,1.0,-999.0,82,-99.99,,,0.00,weatherlink.com 1.10,2013-02-05 04:41:00,
2013-02-04 23:56:00,18.1,13.0,29.95,WSW,251,1.0,-999.0,81,-99.99,,,0.00,weatherlink.com 1.10,2013-02-05 04:56:00,